Weather History for KEGI - April, 2013

Change the Weather History Date:

Thursday, April 11, 2013

  Actual Average Record
Temperature  
Mean Temperature 72 °F -  
Max Temperature 79 °F - - ()
Min Temperature 67 °F - - ()
Cooling Degree Days 8    
Growing Degree Days 22 (Base 50)    
Moisture  
Dew Point 70 °F    
Average Humidity 93    
Maximum Humidity 100    
Minimum Humidity 77    
Precipitation  
Precipitation 1.08 in - - ()
Sea Level Pressure  
Sea Level Pressure 29.79 in    
Wind  
Wind Speed 13 mph (SSE)    
Max Wind Speed 31 mph    
Max Gust Speed 44 mph    
Visibility 8 miles    
Events Rain , Thunderstorm    
T = Trace of Precipitation, MM = Missing Value Source: NWS Daily Summary

Daily Weather History Graph

Daily Weather History Graph

Search for Another Location

Airport or City:

Trip Planner

Search our weather history database for the weather conditions in past years. The results will help you decide how hot, cold, wet, or windy it might be!

Date:

Astronomy

Apr. 11, 2013 Rise Set
Actual Time 6:22 AM CDT 7:11 PM CDT
Civil Twilight 5:58 AM CDT 7:36 PM CDT
Nautical Twilight 5:29 AM CDT 8:05 PM CDT
Astronomical Twilight 4:59 AM CDT 8:34 PM CDT
Moon 6:59 AM CDT (4/11) 8:37 PM CDT (4/11)
Length of Visible Light 13h 37m
Length of Day
12h 48m
New Moon, 2% of the Moon is Illuminated
Apr 11
New Moon
Apr 18
First Quarter
Apr 25
Full
May 2
Last Quarter
May 9
New

Hourly Weather History & Observations

Time (CDT) Temp. Dew Point Humidity Pressure Visibility Wind Dir Wind Speed Gust Speed Precip Events Conditions
12:58 AM 67.5 °F 66.2 °F 96% 29.91 in 10.0 mi South 11.5 mph - N/A   Partly Cloudy
1:18 AM 68.0 °F 66.2 °F 94% 29.90 in 10.0 mi South 11.5 mph - N/A   Mostly Cloudy
1:22 AM 68.0 °F 66.2 °F 94% 29.90 in 10.0 mi South 11.5 mph - N/A   Mostly Cloudy
1:42 AM 68.0 °F 66.2 °F 94% 29.89 in 10.0 mi SSE 9.2 mph - N/A   Scattered Clouds
1:58 AM 67.1 °F 66.7 °F 99% 29.90 in 10.0 mi South 9.2 mph - N/A   Scattered Clouds
2:13 AM 68.0 °F 66.2 °F 94% 29.88 in 10.0 mi South 9.2 mph - N/A   Mostly Cloudy
2:58 AM 67.8 °F 67.5 °F 99% 29.88 in 10.0 mi SSE 8.1 mph - N/A   Mostly Cloudy
3:58 AM 69.1 °F 68.9 °F 99% 29.86 in 10.0 mi SE 8.1 mph - N/A   Overcast
4:13 AM 69.8 °F 69.8 °F 100% 29.85 in 10.0 mi SSE 6.9 mph - N/A   Overcast
4:53 AM 69.8 °F 69.8 °F 100% 29.85 in 10.0 mi SSE 8.1 mph - N/A   Overcast
4:58 AM 70.3 °F 69.8 °F 98% 29.86 in 10.0 mi SSE 9.2 mph - N/A   Overcast
5:21 AM 69.8 °F 69.8 °F 100% 29.85 in 10.0 mi SSE 9.2 mph - N/A   Overcast
5:58 AM 70.2 °F 69.8 °F 99% 29.85 in 10.0 mi SE 8.1 mph - N/A   Overcast
6:39 AM 69.8 °F 69.8 °F 100% 29.85 in 5.0 mi SE 8.1 mph - N/A   Overcast
6:55 AM 70.5 °F 70.2 °F 99% 29.85 in 5.0 mi SE 8.1 mph - N/A   Overcast
7:20 AM 71.6 °F 69.8 °F 94% 29.86 in 6.0 mi SE 9.2 mph - N/A   Overcast
7:55 AM 71.6 °F 69.8 °F 94% 29.86 in 7.0 mi SE 11.5 mph - N/A   Overcast
8:23 AM 73.4 °F 69.8 °F 88% 29.87 in 10.0 mi SSE 13.8 mph - N/A   Overcast
9:55 AM 74.5 °F 69.8 °F 85% 29.86 in 10.0 mi SSE 15.0 mph - N/A   Overcast
10:13 AM 75.2 °F 69.8 °F 83% 29.88 in 10.0 mi South 16.1 mph 26.5 mph N/A   Overcast
10:55 AM 76.6 °F 70.0 °F 80% 29.88 in 10.0 mi South 18.4 mph 24.2 mph N/A   Overcast
11:55 AM 77.2 °F 70.2 °F 79% 29.86 in 10.0 mi South 18.4 mph 29.9 mph N/A   Overcast
12:55 PM 77.9 °F 70.5 °F 78% 29.82 in 10.0 mi South 24.2 mph 32.2 mph N/A   Overcast
1:55 PM 78.1 °F 70.5 °F 77% 29.79 in 10.0 mi South 25.3 mph 33.4 mph N/A   Overcast
2:55 PM 77.7 °F 70.7 °F 79% 29.78 in 10.0 mi South 20.7 mph 35.7 mph N/A   Overcast
3:55 PM 76.5 °F 71.2 °F 84% 29.75 in 10.0 mi South 18.4 mph 28.8 mph N/A   Overcast
4:42 PM 75.2 °F 71.6 °F 89% 29.71 in 10.0 mi SSE 21.9 mph 29.9 mph N/A   Overcast
4:55 PM 75.7 °F 71.4 °F 86% 29.70 in 10.0 mi SSE 21.9 mph 31.1 mph N/A   Overcast
5:55 PM 74.5 °F 71.8 °F 91% 29.68 in 10.0 mi SSE 20.7 mph 26.5 mph N/A   Overcast
6:41 PM 75.2 °F 71.6 °F 89% 29.63 in 5.0 mi SSE 23.0 mph 32.2 mph N/A Rain Light Rain
6:52 PM 75.2 °F 71.6 °F 89% 29.65 in 5.0 mi SSE 20.7 mph 34.5 mph N/A Rain , Thunderstorm Light Thunderstorms and Rain
6:55 PM 74.3 °F 72.5 °F 94% 29.66 in 5.0 mi SSE 23.0 mph 31.1 mph 0.00 in Rain , Thunderstorm Light Thunderstorms and Rain
7:24 PM 73.4 °F 73.4 °F 100% 29.65 in 3.0 mi South 23.0 mph 32.2 mph N/A Rain Light Rain
7:50 PM 73.4 °F 73.4 °F 100% 29.66 in 3.0 mi South 19.6 mph 27.6 mph N/A Rain , Thunderstorm Heavy Thunderstorms and Rain
7:55 PM 73.4 °F 73.0 °F 99% 29.67 in 3.0 mi South 23.0 mph 31.1 mph 0.08 in Rain , Thunderstorm Thunderstorms and Rain
8:36 PM 73.4 °F 71.6 °F 94% 29.74 in 1.0 mi WSW 24.2 mph 39.1 mph N/A Rain , Thunderstorm Heavy Thunderstorms and Rain
8:39 PM 71.6 °F 68.0 °F 88% 29.74 in 0.5 mi South 31.1 mph 43.7 mph N/A Rain , Thunderstorm Heavy Thunderstorms and Rain
8:55 PM 68.4 °F 66.9 °F 95% 29.73 in 2.0 mi SSE 17.3 mph 40.3 mph 0.96 in Rain , Thunderstorm Thunderstorms and Rain
9:18 PM 68.0 °F 68.0 °F 100% 29.72 in 5.0 mi South 12.7 mph - N/A Rain Light Rain
9:55 PM 68.0 °F 68.0 °F 100% 29.74 in 10.0 mi South 9.2 mph - 0.03 in   Overcast
10:20 PM 68.0 °F 68.0 °F 100% 29.75 in 6.0 mi SSE 10.4 mph - N/A Rain Light Rain
10:55 PM 68.9 °F 68.7 °F 99% 29.74 in 6.0 mi SSE 10.4 mph - 0.01 in   Light Drizzle
11:15 PM 69.8 °F 69.8 °F 100% 29.75 in 10.0 mi South 9.2 mph - N/A   Overcast
11:55 PM 68.0 °F 68.0 °F 100% 29.75 in 10.0 mi West 6.9 mph - 0.00 in   Overcast
11:57 PM 68.0 °F 68.0 °F 100% 29.74 in 10.0 mi West 6.9 mph - N/A   Overcast